sat.trackr.live / text

‹ back to catalog

ONEWEB-0141

NORAD 47287 · 2020-100AF

PAYLOAD ACTIVE UNKNOWN

§ Identity

Operator
Country
UK
Launch date
2020-12-18
Launch site
VOSTO
Launch vehicle
Mass (kg)
RCS (m²)

Purposes: comms

External: N2YO · Heavens-Above · Gunter

§ Orbital elements

Epoch: 2026-09-08T17:22:02.660160Z

Period
109.72 min
Inclination
87.8997°
Eccentricity
0.0001755
Mean motion
13.12442083 rev/d
Perigee alt
1,212.4 km
Apogee alt
1,215.1 km
Semi-major
7,591.9 km
B*
-1.0751e-3
RAAN
334.0650°
Arg perigee
108.1602°
Mean anomaly
251.9718°
Rev number
27,563

§ Raw data

ONEWEB-01411 47287U 20100AF  26251.72364190 -.00000374  00000+0 -10751-2 0  99902 47287  87.8997 334.0650 0001755 108.1602 251.9718 13.12442083275639

JSON: /api/v1/satellites/47287 · /tle

For live sub-satellite position, see the globe view (requires WebGL).

§ Visibility from observer

Set your observer location to see the next 7 days of passes ≥ 10°. The values pass through the URL so the page stays shareable.

No JS? Fill the form by hand. The geolocation button needs JavaScript.